Flag for Aruba Weather past 2 weeks in Oranjestad, Aruba

Now
86 °F

Scattered clouds.


Feels Like: 95 °F
Forecast: 82 / 90 °F
Wind: 17 mph from East

Location: Queen Beatrix Airport - Aruba

Current Time: Oct 23, 2014 at 9:36:06 AM

Latest Report: Oct 23, 2014 at 9:00 AM


Visibility: N/A

Pressure: 29.89 "Hg

Humidity: 70%

Dew point: 75 °F

Location of OranjestadLocation

Historic Weather in Oranjestad — Graph

°F

Oranjestad temperature yesterday

Maximum temperature yesterday: 91 °F (at 11:00 AM)
Minimum temperature yesterday: 81 °F (at 5:00 AM)
Average temperature yesterday: 86 °F

Past Weeks' High & Low Weather Summary

 TemperatureHumidityPressure
High91 °F (Oct 11, 2:00 PM)94% (Oct 9, 9:00 PM)32.49 "Hg (Oct 9, 9:00 PM)
Low77 °F (Oct 9, 9:00 PM)59% (Oct 14, 1:00 PM)29.74 "Hg (Oct 8, 4:00 PM)
Average85 °F77%29.85 "Hg
* Reported Oct 8 8:00 AM — Oct 23 8:00 AM, Oranjestad, Weather by CustomWeather, © 2014

Note: Actual official high and low records may vary slightly from our data, if they occured in-between our weather recording intervals... More about our weather records

Advertising

Oranjestad weather history for previous 24 hours

 ConditionsComfort  
Time TempWeatherWind HumidityBarometerVisibility
8:00 AM
Oct 23
84 °FScattered clouds.14 mph74%29.86 "HgN/A
7:00 AM82 °FPassing clouds.12 mph79%29.86 "HgN/A
6:00 AM82 °FPassing clouds.13 mph79%29.83 "HgN/A
5:00 AM82 °FPassing clouds.13 mph79%29.80 "HgN/A
4:00 AM82 °FPassing clouds.14 mph79%29.80 "HgN/A
3:00 AM82 °FPassing clouds.14 mph79%29.80 "HgN/A
12:00 AM82 °FWarm.15 mph84%29.86 "HgN/A
11:00 PM
Oct 22
82 °FPassing clouds.12 mph84%29.86 "HgN/A
10:00 PM84 °FPassing clouds.14 mph79%29.86 "HgN/A
9:00 PM84 °FPassing clouds.14 mph79%29.86 "HgN/A
8:00 PM84 °FPassing clouds.15 mph79%29.83 "HgN/A
7:00 PM84 °FPassing clouds.14 mph79%29.77 "HgN/A
6:00 PM84 °FPassing clouds.18 mph79%29.77 "HgN/A
5:00 PM88 °FPassing clouds.18 mph70%29.77 "HgN/A
4:00 PM88 °FScattered clouds.20 mph70%29.77 "HgN/A
3:00 PM90 °FScattered clouds.17 mph67%29.80 "HgN/A
2:00 PM90 °FScattered clouds.16 mph63%29.83 "HgN/A
1:00 PM90 °FPartly sunny.15 mph67%29.86 "HgN/A
12:00 PM91 °FPassing clouds.17 mph59%29.86 "HgN/A
11:00 AM91 °FPassing clouds.16 mph63%29.89 "HgN/A
10:00 AM88 °FPassing clouds.15 mph70%29.92 "HgN/A
9:00 AM88 °FPassing clouds.18 mph66%29.92 "HgN/A
Weather by CustomWeather, © 2014

See weather overviewHow to use our weather pages